Flag for Brazil Weather past 2 weeks in Recife, Pernambuco, Brazil

Now
77 °F

Passing clouds.


Feels Like: 78 °F
Forecast: 76 / 81 °F
Wind: 7 mph from Southeast

Location: Recife Aeroporto

Current Time: Sep 23, 2014 at 2:28:18 AM

Latest Report: Sep 23, 2014 at 2:00 AM


Visibility: N/A

Pressure: 29.98 "Hg

Humidity: 83%

Dew point: 72 °F

Location of RecifeLocation

Historic Weather in Recife — Graph

°F

Recife temperature yesterday

Maximum temperature yesterday: 84 °F (at 12:00 PM)
Minimum temperature yesterday: 73 °F (at 3:00 AM)
Average temperature yesterday: 79 °F

Past Weeks' High & Low Weather Summary

 TemperatureHumidityPressure
High84 °F (Sep 22, 12:00 PM)100% (Sep 8, 3:00 AM)30.07 "Hg (Sep 8, 3:00 AM)
Low70 °F (Sep 15, 3:00 AM)61% (Sep 16, 9:00 PM)29.92 "Hg (Sep 11, 2:00 PM)
Average77 °F82%29.99 "Hg
* Reported Sep 8 1:00 AM — Sep 23 1:00 AM, Recife, Weather by CustomWeather, © 2014

Note: Actual official high and low records may vary slightly from our data, if they occured in-between our weather recording intervals... More about our weather records

Advertising

Recife weather history for previous 24 hours

 ConditionsComfort  
Time TempWeatherWind HumidityBarometerVisibility
1:00 AM
Sep 23
77 °FPassing clouds.8 mph83%29.98 "HgN/A
12:00 AM79 °FPassing clouds.7 mph79%29.98 "HgN/A
11:00 PM
Sep 22
79 °FPassing clouds.7 mph79%29.98 "HgN/A
10:00 PM79 °FPassing clouds.7 mph79%29.98 "HgN/A
9:00 PM79 °FPassing clouds.7 mph79%29.98 "HgN/A
8:00 PM79 °FPassing clouds.6 mph79%29.98 "HgN/A
7:00 PM79 °FPassing clouds.7 mph79%29.95 "HgN/A
6:00 PM79 °FPassing clouds.6 mph79%29.92 "HgN/A
5:00 PM81 °FScattered clouds.7 mph74%29.92 "HgN/A
4:00 PM81 °FPassing clouds.8 mph74%29.92 "HgN/A
3:00 PM82 °FPassing clouds.10 mph70%29.92 "HgN/A
2:00 PM82 °FScattered clouds.12 mph70%29.92 "HgN/A
1:00 PM84 °FScattered clouds.10 mph70%29.92 "HgN/A
12:00 PM84 °FPartly sunny.12 mph70%29.95 "HgN/A
11:00 AM82 °FScattered clouds.12 mph74%29.98 "HgN/A
10:00 AM82 °FScattered clouds.12 mph74%30.01 "HgN/A
9:00 AM82 °FScattered clouds.9 mph74%30.01 "HgN/A
8:00 AM81 °FScattered clouds.7 mph79%30.01 "HgN/A
7:00 AM79 °FScattered clouds.5 mph79%29.98 "HgN/A
6:00 AM73 °FScattered clouds.2 mph94%29.98 "HgN/A
5:00 AM73 °FPassing clouds.No wind94%29.95 "HgN/A
4:00 AM73 °FPassing clouds.2 mph94%29.95 "HgN/A
3:00 AM73 °FPassing clouds.2 mph94%29.95 "HgN/A
2:00 AM77 °FPassing clouds.2 mph83%29.95 "HgN/A
Weather by CustomWeather, © 2014

See weather overviewHow to use our weather pages